GW1508 Weather Reports


time (UTC)temp
C
wind
direction
speed
KPH
gust
KPH
rain 1hr
cm
rain 24hr
cm
rain mn
cm
humidity
%
barometer
mb
20260904144324 18 105 4.8 9.7 0.00 0.00 0.00 75 1023.1
20260904142813 18 74 4.8 12.9 0.00 0.00 0.00 76 1023.3
20260904135823 19 90 3.2 12.9 0.00 0.00 0.00 77 1023.2
20260904134320 18 15 4.8 12.9 0.00 0.00 0.00 79 1023.2
20260904131324 18 64 4.8 11.3 0.00 0.00 0.00 80 1023.5
20260904125819 18 71 4.8 14.5 0.00 0.00 0.00 80 1023.6
20260904122825 18 54 4.8 12.9 0.00 0.00 0.00 81 1023.5
20260904115826 18 13 4.8 12.9 0.00 0.00 0.00 80 1023.5
20260904112826 18 81 6.4 14.5 0.00 0.00 0.00 80 1023.7
20260904111323 18 134 3.2 11.3 0.00 0.00 0.00 79 1023.9
20260904105816 18 69 4.8 12.9 0.00 0.00 0.00 79 1023.8
20260904102819 18 151 3.2 14.5 0.00 0.00 0.00 76 1024.0
20260904095825 18 9 4.8 11.3 0.00 0.00 0.00 73 1024.1
20260904094317 18 333 6.4 14.5 0.00 0.00 0.00 74 1024.1
20260904091319 18 197 3.2 9.7 0.00 0.00 0.00 72 1024.0
20260904084325 19 329 1.6 8.0 0.00 0.00 0.00 68 1024.1
20260904082817 20 65 0.0 3.2 0.00 0.00 0.00 67 1024.3
20260904081315 20 275 0.0 3.2 0.00 0.00 0.00 66 1024.3
20260904074321 19 248 0.0 6.4 0.00 0.00 0.00 72 1024.2
20260904072813 18 186 0.0 1.6 0.00 0.00 0.00 73 1024.3
20260904065824 13 196 0.0 1.6 0.00 0.00 0.00 93 1024.6
20260904064317 10 196 0.0 0.0 0.00 0.00 0.00 93 1024.7
20260904061323 1 196 0.0 0.0 0.00 0.00 0.00 94 1024.9
20260904055820 1 196 0.0 0.0 0.00 0.00 0.00 93 1024.5
20260904052823 1 196 0.0 0.0 0.00 0.00 0.00 91 1024.3
20260904045826 1 196 0.0 0.0 0.00 0.00 0.00 89 1024.0
20260904042824 2 196 0.0 0.0 0.00 0.00 0.00 87 1023.6
20260904035825 4 196 0.0 0.0 0.00 0.00 0.00 85 1023.5
20260904034317 5 196 0.0 0.0 0.00 0.00 0.00 83 1023.4
20260904031326 8 196 0.0 0.0 0.00 0.00 0.00 80 1023.2
20260904025818 10 196 0.0 0.0 0.00 0.00 0.00 77 1022.9
20260904022828 15 157 0.0 6.4 0.00 0.00 0.00 67 1023.2
20260904021313 15 190 1.6 9.7 0.00 0.00 0.00 65 1023.3
20260904014320 15 180 3.2 9.7 0.00 0.00 0.00 71 1023.5
20260904011320 15 225 6.4 11.3 0.00 0.00 0.00 69 1023.6
20260904005815 14 229 3.2 9.7 0.00 0.00 0.00 79 1023.7
20260904002818 13 199 3.2 12.9 0.00 0.00 0.00 89 1024.2
20260903235821 7 238 0.0 0.0 0.00 0.00 0.00 85 1024.1
20260903232824 11 238 0.0 0.0 0.00 0.00 0.00 77 1024.0
20260903231314 13 238 0.0 0.0 0.00 0.00 0.00 78 1024.0
20260903224326 15 251 0.0 11.3 0.00 0.00 0.00 77 1024.3
20260903221627 15 207 6.4 11.3 0.00 0.00 0.00 74 1024.6
20260903215834 14 235 0.0 8.0 0.00 0.00 0.00 78 1024.6
20260903212824 13 223 8.0 11.3 0.00 0.00 0.00 94 1024.7
20260903205827 7 93 0.0 1.6 0.00 0.00 0.00 93 1025.0
20260903204320 5 84 0.0 0.0 0.00 0.00 0.00 94 1025.1
20260903201322 3 84 0.0 0.0 0.00 0.00 0.00 92 1024.9
20260903195822 3 84 0.0 0.0 0.00 0.00 0.00 90 1024.9
20260903192824 5 84 0.0 0.0 0.00 0.00 0.00 87 1024.6
20260903191318 6 84 0.0 0.0 0.00 0.00 0.00 86 1024.6
20260903185816 6 84 0.0 0.0 0.00 0.00 0.00 85 1024.3
20260903182817 8 84 0.0 0.0 0.00 0.00 0.00 83 1023.7
20260903175829 11 84 0.0 0.0 0.00 0.00 0.00 82 1023.4
20260903174325 12 84 0.0 0.0 0.00 0.00 0.00 83 1023.2
20260903172820 13 84 0.0 0.0 0.00 0.00 0.00 86 1023.1
20260903164321 15 84 0.0 6.4 0.00 0.00 0.00 86 1022.8
20260903161326 16 60 0.0 3.2 0.00 0.00 0.00 83 1023.0
20260903155820 16 63 1.6 8.0 0.00 0.00 0.00 84 1022.7
20260903154313 16 84 3.2 8.0 0.00 0.00 0.00 85 1022.5